[[{"header":{"parameterUnit":"m.s-1","parameterCategory":1,"la1":30.2991,"la2":30.254,"lo1":-89.0895,"lo2":-89.0444,"dy":0.0017,"dx":0.0017,"nx":28,"ny":28,"refTime":"2025-11-20T03:00:00:Z","depth":0,"parameterNumber":2,"parameterNumberName":"U-component_of_WINDS"},"data":[0,0,0,0,0,0,0,0,0,0,0,0,0,0,0,0,0,0,0,0,0,0,0,0,0,0,0,0,0,0,0,0,0,0,0,0,0,0,0,0,0,0,0,0,0,0,0,0,0,0,0,0,0,0,0,0,0,0,-1.2684,-1.2683,0,-1.2636,-1.2636,-1.2635,-1.2576,-1.2575,-1.2574,-1.2573,-1.2524,-1.2524,-1.2523,0,0,0,0,0,0,0,0,0,0,0,0,0,-1.2724,-1.2724,-1.2684,-1.2683,-1.2683,-1.2636,-1.2636,-1.2635,-1.2576,-1.2575,-1.2574,-1.2572,-1.2524,-1.2524,-1.2523,0,0,0,0,0,0,0,0,0,0,0,0,0,-1.2695,-1.2724,-1.2684,-1.2648,-1.2644,-1.2636,-1.2636,-1.2635,-1.2576,-1.2575,-1.2573,-1.2572,-1.2524,-1.2524,-1.2523,-1.2547,0,0,-1.2521,-1.2521,0,0,0,0,0,0,0,0,-1.2696,-1.2693,-1.2654,-1.265,-1.2646,-1.261,-1.2632,-1.2605,-1.2576,-1.2602,-1.2573,-1.2571,-1.2554,-1.2551,-1.2545,-1.2545,-1.2543,-1.2521,-1.2521,-1.252,-1.252,0,0,0,0,0,0,0,-1.2699,-1.2695,-1.2665,-1.2653,-1.2648,-1.2634,-1.2628,-1.2627,-1.2586,-1.2599,-1.2595,-1.259,-1.2552,-1.2546,-1.2543,-1.2542,-1.2521,-1.2521,-1.252,-1.252,-1.2561,-1.2562,0,0,0,0,0,0,-1.2706,-1.2697,-1.2666,-1.2664,-1.2668,-1.2634,-1.2628,-1.2623,-1.2586,-1.2579,-1.2591,-1.2588,-1.2547,-1.2544,-1.2541,-1.2568,-1.252,-1.252,-1.252,-1.2559,-1.2561,-1.2563,0,0,0,0,0,0,-1.2707,-1.2704,-1.2668,-1.2679,-1.2673,-1.2635,-1.263,-1.2623,-1.2617,-1.258,-1.2573,-1.2593,-1.2546,-1.2542,-1.2547,-1.2566,-1.252,-1.2519,-1.2558,-1.256,-1.2562,-1.2621,0,0,0,0,0,0,-1.2709,-1.2705,-1.2713,-1.268,-1.2673,-1.2675,-1.2632,-1.2623,-1.2616,-1.2611,-1.2579,-1.2573,-1.2545,-1.2548,-1.2546,-1.2564,-1.2519,-1.2556,-1.2559,-1.2561,-1.2618,-1.2625,-1.2632,0,0,0,0,0,-1.271,-1.2732,-1.2714,-1.2711,-1.2683,-1.2676,-1.2672,-1.2639,-1.2618,-1.2627,-1.2603,-1.2574,-1.2564,-1.2549,-1.2546,-1.2564,-1.2554,-1.2558,-1.2561,-1.2614,-1.2624,-1.2632,0,0,0,0,0,0,-1.2769,-1.2727,-1.2707,-1.2718,-1.2701,-1.2666,-1.2676,-1.265,-1.2639,-1.2634,-1.2593,-1.2587,-1.2596,-1.258,-1.2565,-1.2586,-1.2555,-1.2558,-1.2596,-1.2605,-1.2612,-1.2616,-1.2518,0,0,0,0,0,-1.2783,-1.278,-1.2744,-1.2757,-1.275,-1.2714,-1.271,-1.2686,-1.2667,-1.2659,-1.2636,-1.2618,-1.2611,-1.2607,-1.2598,-1.2615,-1.2607,-1.2626,-1.2633,-1.2639,-1.2643,-1.2651,-1.2659,-1.2574,-1.2574,-1.2573,0,0,-1.2812,-1.2789,-1.279,-1.2769,-1.2752,-1.2751,-1.2709,-1.2708,-1.2707,-1.2659,-1.2662,-1.2644,-1.2622,-1.2633,-1.2636,-1.262,-1.2664,-1.2643,-1.2649,-1.2648,-1.2655,-1.2663,-1.267,-1.2576,-1.2575,-1.2575,0,0,-1.2865,-1.2847,-1.2857,-1.2842,-1.2818,-1.2794,-1.2797,-1.2765,-1.2752,-1.2754,-1.2718,-1.2716,-1.2704,-1.269,-1.2681,-1.2729,-1.2702,-1.2727,-1.2765,-1.2774,-1.2781,-1.2786,-1.2804,-1.2811,-1.273,-1.2731,-1.2731,0,-1.2905,-1.2901,-1.2865,-1.2868,-1.286,-1.2816,-1.2826,-1.2813,-1.2788,-1.2783,-1.2765,-1.2749,-1.2731,-1.2739,-1.275,-1.2744,-1.2746,-1.2731,-1.2783,-1.2788,-1.2793,-1.281,-1.2816,-1.2734,-1.2733,-1.2733,-1.2733,0,-1.2951,-1.2949,-1.296,-1.2937,-1.293,-1.2936,-1.2901,-1.2899,-1.2876,-1.2854,-1.2857,-1.2834,-1.282,-1.2819,-1.2797,-1.2824,-1.2814,-1.279,-1.2758,-1.2805,-1.282,-1.2826,-1.2738,-1.2737,-1.2736,-1.2735,0,0,-1.304,-1.2997,-1.3002,-1.2991,-1.2962,-1.296,-1.2964,-1.295,-1.2949,-1.2933,-1.2936,-1.2927,-1.2905,-1.2895,-1.287,-1.2878,-1.2918,-1.2852,-1.2851,-1.2866,-1.2948,-1.2967,-1.2975,-1.29,-1.2901,-1.2902,-1.295,0,-1.3088,-1.3093,-1.3062,-1.3075,-1.3073,-1.3032,-1.3036,-1.3018,-1.2998,-1.2994,-1.2971,-1.2966,-1.2936,-1.293,-1.2935,-1.2912,-1.2934,-1.2908,-1.2903,-1.2903,-1.2911,-1.2982,-1.3003,-1.3049,-1.2955,-1.2956,-1.2957,0,-1.3145,-1.3133,-1.3147,-1.3117,-1.3115,-1.3119,-1.3104,-1.31,-1.308,-1.3065,-1.3054,-1.3026,-1.3028,-1.2997,-1.3,-1.2983,-1.2979,-1.2967,-1.2968,-1.2967,-1.2934,-1.2984,-1.3063,-1.307,-1.2966,-1.2965,-1.2964,0,-1.321,-1.3196,-1.3203,-1.3195,-1.3161,-1.3165,-1.315,-1.3128,-1.3123,-1.311,-1.3106,-1.3093,-1.3087,-1.3078,-1.3047,-1.3027,-1.3054,-1.302,-1.3042,-1.3043,-1.305,-1.305,-1.313,-1.3046,-1.3046,-1.3046,-1.3046,0,-1.3268,-1.3278,-1.3232,-1.3236,-1.3246,-1.3209,-1.3221,-1.3202,-1.3183,-1.3183,-1.3146,-1.3147,-1.3106,-1.3102,-1.3078,-1.3085,-1.3082,-1.307,-1.3064,-1.3074,-1.3076,-1.3071,-1.3068,-1.3047,-1.3047,-1.3047,-1.3046,0,-1.3342,-1.3311,-1.3316,-1.3283,-1.3275,-1.3284,-1.3256,-1.3259,-1.3236,-1.3237,-1.3235,-1.32,-1.3194,-1.3162,-1.3148,-1.3132,-1.3147,-1.3134,-1.3154,-1.315,-1.3174,-1.3173,-1.3255,-1.3264,-1.3174,-1.3175,-1.3175,0,-1.3381,-1.3388,-1.3356,-1.3354,-1.3341,-1.3338,-1.3332,-1.3295,-1.3291,-1.3268,-1.3274,-1.3265,-1.3255,-1.3248,-1.3221,-1.321,-1.3197,-1.3226,-1.3195,-1.3206,-1.3199,-1.3199,-1.32,-1.3234,-1.3235,-1.3236,-1.3236,0,-1.3455,-1.3439,-1.3432,-1.342,-1.3414,-1.3402,-1.3388,-1.3388,-1.3348,-1.3345,-1.3338,-1.3331,-1.3317,-1.3309,-1.3294,-1.3279,-1.3252,-1.3246,-1.3251,-1.3262,-1.3274,-1.3269,-1.3174,-1.3245,-1.3244,-1.3243,-1.3243,-1.3243,-1.3513,-1.3518,-1.3496,-1.3489,-1.3475,-1.3463,-1.3465,-1.3442,-1.3436,-1.3422,-1.3401,-1.3398,-1.3377,-1.3354,-1.3342,-1.3339,-1.3323,-1.3329,-1.3331,-1.3334,-1.3339,-1.3274,-1.3336,-1.3335,-1.3335,-1.3335,-1.3335,0,-1.3585,-1.3569,-1.3564,-1.3546,-1.3541,-1.3515,-1.3498,-1.3496,-1.3493,-1.3476,-1.3468,-1.3461,-1.3453,-1.3426,-1.3415,-1.3418,-1.3405,-1.3416,-1.3416,-1.3413,-1.3354,-1.3351,-1.3427,-1.3427,-1.3427,-1.3427,-1.3427,-1.3427,-1.3622,-1.3629,-1.3611,-1.3611,-1.3594,-1.3591,-1.3584,-1.3573,-1.3559,-1.3553,-1.3546,-1.3528,-1.3508,-1.3495,-1.3486,-1.3479,-1.3477,-1.3493,-1.3481,-1.3426,-1.3417,-1.3409,-1.3406,-1.3492,-1.3492,-1.354,-1.3541,-1.3541]},{"header":{"parameterUnit":"m.s-1","parameterCategory":1,"la1":30.2991,"la2":30.254,"lo1":-89.0895,"lo2":-89.0444,"dy":0.0017,"dx":0.0017,"nx":28,"ny":28,"refTime":"2025-11-20T03:00:00:Z","depth":0,"parameterNumber":3,"parameterNumberName":"V-component_of_WINDS"},"data":[0,0,0,0,0,0,0,0,0,0,0,0,0,0,0,0,0,0,0,0,0,0,0,0,0,0,0,0,0,0,0,0,0,0,0,0,0,0,0,0,0,0,0,0,0,0,0,0,0,0,0,0,0,0,0,0,0,0,0.4493,0.4492,0,0.4423,0.4422,0.4421,0.4392,0.4392,0.4392,0.4393,0.4317,0.4315,0.4313,0,0,0,0,0,0,0,0,0,0,0,0,0,0.4598,0.4596,0.4493,0.4492,0.4491,0.4423,0.4422,0.4421,0.4392,0.4392,0.4392,0.4393,0.4318,0.4316,0.4313,0,0,0,0,0,0,0,0,0,0,0,0,0,0.4542,0.4595,0.4493,0.4468,0.4466,0.4423,0.4422,0.4421,0.4392,0.4392,0.4393,0.4393,0.4319,0.4316,0.4313,0.4288,0,0,0.4303,0.4301,0,0,0,0,0,0,0,0,0.4545,0.4538,0.4473,0.447,0.4467,0.4416,0.4431,0.4376,0.4392,0.442,0.4393,0.4393,0.435,0.4344,0.433,0.4285,0.4282,0.4303,0.4301,0.4299,0.4298,0,0,0,0,0,0,0,0.4549,0.4541,0.4465,0.4472,0.4468,0.446,0.4452,0.4421,0.4384,0.4417,0.4415,0.4407,0.4348,0.4334,0.4329,0.428,0.4303,0.43,0.4298,0.4297,0.421,0.421,0,0,0,0,0,0,0.4558,0.4545,0.4467,0.4463,0.4508,0.4458,0.4449,0.4432,0.4385,0.4378,0.4407,0.4406,0.4339,0.4332,0.4326,0.4294,0.4299,0.4296,0.4294,0.4211,0.421,0.421,0,0,0,0,0,0,0.456,0.4551,0.447,0.4503,0.4492,0.4456,0.4437,0.4431,0.4416,0.4377,0.437,0.4399,0.4339,0.433,0.4298,0.4291,0.4295,0.4292,0.4211,0.4211,0.421,0.423,0,0,0,0,0,0,0.4563,0.4552,0.4543,0.4503,0.4491,0.4444,0.4436,0.4429,0.4411,0.4409,0.4368,0.4361,0.4338,0.4303,0.4295,0.4286,0.4289,0.4212,0.4211,0.421,0.423,0.423,0.423,0,0,0,0,0,0.4567,0.4551,0.4543,0.4534,0.4479,0.4444,0.4437,0.4412,0.4411,0.4401,0.4376,0.4362,0.4293,0.43,0.429,0.4281,0.4212,0.4211,0.421,0.4229,0.423,0.423,0,0,0,0,0,0,0.459,0.4545,0.4536,0.4507,0.448,0.4439,0.4426,0.4413,0.4385,0.4385,0.4354,0.4345,0.4315,0.4295,0.4303,0.4254,0.4251,0.4249,0.4269,0.4269,0.427,0.4275,0.4287,0,0,0,0,0,0.4592,0.4568,0.453,0.4508,0.4495,0.4463,0.4447,0.443,0.4401,0.4389,0.4361,0.4332,0.4303,0.4285,0.4257,0.4227,0.4217,0.4215,0.4216,0.4216,0.4214,0.4196,0.4195,0.4207,0.4207,0.4207,0,0,0.4595,0.4567,0.4554,0.4512,0.4489,0.4464,0.4453,0.4428,0.4409,0.4384,0.4352,0.4331,0.4296,0.4265,0.425,0.4247,0.4208,0.4215,0.4216,0.4213,0.4195,0.4194,0.4193,0.4207,0.4207,0.4207,0,0,0.4588,0.4565,0.4544,0.4522,0.4488,0.4466,0.4462,0.4423,0.4408,0.4376,0.4357,0.4334,0.4285,0.4261,0.4243,0.4227,0.4213,0.4218,0.422,0.4203,0.4202,0.4201,0.4195,0.4193,0.4216,0.4216,0.4216,0,0.4596,0.4559,0.4535,0.451,0.4492,0.4469,0.4447,0.4426,0.4384,0.4371,0.4369,0.4308,0.4283,0.4245,0.4242,0.4227,0.422,0.4223,0.4204,0.4203,0.4201,0.4195,0.4193,0.4217,0.4217,0.4217,0.4217,0,0.457,0.4545,0.4532,0.4493,0.4473,0.445,0.4421,0.4403,0.4388,0.4367,0.4334,0.4303,0.4268,0.4258,0.4243,0.4218,0.4218,0.421,0.4206,0.4202,0.4195,0.4193,0.4218,0.4218,0.4218,0.4218,0,0,0.4576,0.4524,0.452,0.4502,0.4462,0.4442,0.4417,0.4384,0.4369,0.4341,0.4319,0.4279,0.4271,0.425,0.4232,0.4217,0.4206,0.4211,0.421,0.4211,0.4176,0.4182,0.418,0.4197,0.4196,0.4196,0.4179,0,0.4563,0.452,0.4497,0.4462,0.4438,0.4417,0.4395,0.4368,0.4348,0.4323,0.43,0.4272,0.4265,0.4252,0.4236,0.4211,0.4199,0.4212,0.4175,0.4174,0.4184,0.4177,0.4183,0.4168,0.4177,0.4176,0.4176,0,0.4543,0.4516,0.448,0.4443,0.4432,0.4414,0.4381,0.4359,0.4327,0.4313,0.429,0.4272,0.4244,0.4243,0.4203,0.4213,0.4196,0.4181,0.418,0.4175,0.4175,0.4171,0.4163,0.4161,0.4172,0.4172,0.4172,0,0.455,0.4505,0.4477,0.4463,0.4419,0.4407,0.4388,0.4357,0.4338,0.4309,0.4297,0.4265,0.4247,0.4222,0.4196,0.4197,0.4159,0.4155,0.4146,0.4146,0.4138,0.4139,0.4127,0.4128,0.4128,0.4128,0.4128,0,0.4539,0.4517,0.448,0.4463,0.4438,0.4411,0.4387,0.4366,0.4339,0.4316,0.4295,0.4274,0.4241,0.4216,0.4195,0.4165,0.4157,0.4144,0.4139,0.4146,0.4148,0.4135,0.4135,0.4128,0.4128,0.4128,0.4128,0,0.4543,0.4517,0.4486,0.4447,0.4437,0.4421,0.4387,0.4369,0.4348,0.432,0.4312,0.4278,0.4247,0.4218,0.4177,0.4162,0.4132,0.4125,0.4143,0.414,0.4132,0.4133,0.4111,0.4107,0.4111,0.4111,0.4111,0,0.4537,0.452,0.4481,0.4465,0.4447,0.4421,0.4403,0.4376,0.4357,0.432,0.4306,0.4274,0.4247,0.4198,0.4169,0.4137,0.4129,0.4123,0.4124,0.4131,0.4128,0.4129,0.4127,0.4124,0.4124,0.4124,0.4124,0,0.453,0.4518,0.4492,0.4462,0.4441,0.4416,0.439,0.4378,0.4345,0.4325,0.4294,0.4273,0.4231,0.4199,0.4164,0.4143,0.4127,0.4124,0.412,0.4127,0.4138,0.4132,0.4144,0.4124,0.4124,0.4124,0.4124,0.4124,0.4528,0.4512,0.4482,0.4454,0.4432,0.4408,0.4389,0.4366,0.434,0.4305,0.429,0.4258,0.4226,0.4178,0.4157,0.4131,0.4127,0.4122,0.412,0.4119,0.4121,0.4143,0.4124,0.4124,0.4124,0.4124,0.4124,0,0.4519,0.4499,0.4474,0.4439,0.4417,0.4406,0.4376,0.4358,0.4331,0.4303,0.4277,0.4241,0.421,0.4178,0.4145,0.413,0.4122,0.4122,0.4123,0.4118,0.4126,0.4132,0.4129,0.4129,0.4129,0.4129,0.4129,0.4129,0.4512,0.4485,0.4469,0.443,0.4409,0.4379,0.4363,0.434,0.4318,0.4279,0.4254,0.4234,0.4204,0.4169,0.4139,0.4131,0.4119,0.4121,0.4111,0.4118,0.4118,0.4118,0.4124,0.4119,0.4119,0.4105,0.4105,0.4105]}]]